VHASH YGFN-YSHL

Flight info

Callsign VHASH
Flight time N/A
Altitude 28000
Route CFS J70 BANDA/N0320F300 J70 IGDAM/N0319F290 H652 TESAT H65 WOL
Aircraft TBM9/L-SDFGRWY/S

Departure

Time 2026-04-26 10:02
Airport Clarence Valley Regional Airport (YGFN)

Arrival

Time N/A
Airport Shellharbour Airport (YSHL)
Time Latitude Longitude Altitude Speed Heading
2026-04-26 09:59 -29.75946 153.02920 109 ft 0 kts 32°
2026-04-26 10:00 -29.75962 153.02956 109 ft 7 kts 106°
2026-04-26 10:00 -29.75970 153.03017 109 ft 9 kts 94°
2026-04-26 10:01 -29.75943 153.03069 107 ft 0 kts
2026-04-26 10:01 -29.75892 153.03075 105 ft 31 kts
2026-04-26 10:01 -29.75435 153.03124 91 ft 99 kts
2026-04-26 10:01 -29.74621 153.03200 339 ft 128 kts
2026-04-26 10:02 -29.73650 153.03285 696 ft 150 kts
2026-04-26 10:02 -29.72610 153.03167 1302 ft 152 kts 352°
2026-04-26 10:02 -29.71542 153.02957 1791 ft 158 kts 352°
2026-04-26 10:02 -29.70525 153.02492 2322 ft 162 kts 316°
2026-04-26 10:03 -29.70109 153.01331 2873 ft 160 kts 269°
2026-04-26 10:03 -29.70440 153.00149 3398 ft 156 kts 228°
2026-04-26 10:03 -29.71322 152.99493 3921 ft 151 kts 189°
2026-04-26 10:03 -29.72352 152.99559 4448 ft 149 kts 166°
2026-04-26 10:04 -29.73378 152.99790 4982 ft 151 kts 167°
2026-04-26 10:04 -29.74403 153.00008 5518 ft 152 kts 167°
2026-04-26 10:04 -29.75462 153.00232 6102 ft 153 kts 167°
2026-04-26 10:04 -29.76517 153.00454 6707 ft 155 kts 167°
2026-04-26 10:05 -29.77566 153.00673 7280 ft 156 kts 167°
2026-04-26 10:05 -29.78641 153.00897 7867 ft 158 kts 167°
2026-04-26 10:05 -29.79728 153.01125 8457 ft 160 kts 167°
2026-04-26 10:05 -29.80829 153.01354 9052 ft 161 kts 167°
2026-04-26 10:06 -29.81941 153.01586 9646 ft 163 kts 167°
2026-04-26 10:06 -29.83065 153.01821 10245 ft 165 kts 166°
2026-04-26 10:06 -29.84201 153.02058 10791 ft 167 kts 166°
2026-04-26 10:06 -29.85347 153.02297 11340 ft 168 kts 166°
2026-04-26 10:07 -29.86501 153.02538 11899 ft 169 kts 166°
2026-04-26 10:07 -29.87667 153.02782 12464 ft 171 kts 165°
2026-04-26 10:07 -29.88843 153.03028 13025 ft 172 kts 165°
2026-04-26 10:07 -29.90032 153.03277 13607 ft 174 kts 165°
2026-04-26 10:08 -29.91226 153.03527 14173 ft 175 kts 165°
2026-04-26 10:08 -29.92434 153.03780 14714 ft 177 kts 165°
2026-04-26 10:08 -29.93650 153.04034 15241 ft 178 kts 165°
2026-04-26 10:08 -29.94858 153.04287 15764 ft 180 kts 165°
2026-04-26 10:09 -29.96096 153.04546 16305 ft 182 kts 166°
2026-04-26 10:09 -29.97346 153.04808 16841 ft 183 kts 166°
2026-04-26 10:09 -29.98606 153.05072 17391 ft 185 kts 166°
2026-04-26 10:09 -29.99879 153.05339 17931 ft 186 kts 166°
2026-04-26 10:10 -30.01162 153.05608 18496 ft 188 kts 167°
2026-04-26 10:10 -30.02453 153.05878 18995 ft 189 kts 167°
2026-04-26 10:10 -30.03750 153.06150 19489 ft 190 kts 167°
2026-04-26 10:10 -30.05056 153.06425 20006 ft 191 kts 167°
2026-04-26 10:11 -30.06366 153.06700 20527 ft 192 kts 167°
2026-04-26 10:11 -30.07681 153.06976 21045 ft 193 kts 167°
2026-04-26 10:11 -30.09004 153.07254 21569 ft 194 kts 167°
2026-04-26 10:11 -30.10335 153.07534 22089 ft 195 kts 167°
2026-04-26 10:12 -30.11679 153.07816 22507 ft 203 kts 167°
2026-04-26 10:12 -30.13133 153.08120 22651 ft 221 kts 168°
2026-04-26 10:12 -30.14701 153.08445 22803 ft 236 kts 168°
2026-04-26 10:12 -30.16359 153.08790 22957 ft 247 kts 168°
2026-04-26 10:13 -30.18064 153.09147 23108 ft 256 kts 168°
2026-04-26 10:13 -30.19846 153.09522 23238 ft 264 kts 168°
2026-04-26 10:13 -30.21697 153.09912 23369 ft 270 kts 168°
2026-04-26 10:13 -30.23536 153.10298 23509 ft 274 kts 168°
2026-04-26 10:14 -30.25429 153.10697 23651 ft 278 kts 168°
2026-04-26 10:14 -30.27344 153.11100 23725 ft 283 kts 168°
2026-04-26 10:14 -30.29312 153.11282 23871 ft 286 kts 180°
2026-04-26 10:14 -30.31293 153.10938 24001 ft 290 kts 192°
2026-04-26 10:15 -30.33177 153.10082 24131 ft 294 kts 205°
2026-04-26 10:15 -30.34876 153.08730 24263 ft 299 kts 218°
2026-04-26 10:15 -30.36372 153.07048 24381 ft 300 kts 221°
2026-04-26 10:15 -30.37869 153.05356 24497 ft 301 kts 221°
2026-04-26 10:16 -30.39373 153.03660 24612 ft 302 kts 221°
2026-04-26 10:16 -30.40872 153.01955 24730 ft 302 kts 221°
2026-04-26 10:16 -30.42372 153.00248 24846 ft 303 kts 221°
2026-04-26 10:16 -30.43878 152.98538 24961 ft 303 kts 221°
2026-04-26 10:17 -30.45385 152.96827 25082 ft 303 kts 221°
2026-04-26 10:17 -30.46891 152.95114 25200 ft 304 kts 221°
2026-04-26 10:17 -30.48399 152.93398 25316 ft 304 kts 222°
2026-04-26 10:17 -30.49908 152.91681 25436 ft 304 kts 221°
2026-04-26 10:18 -30.51420 152.89961 25557 ft 304 kts 221°
2026-04-26 10:18 -30.52927 152.88245 25674 ft 304 kts 221°
2026-04-26 10:18 -30.54417 152.86546 25794 ft 304 kts 221°
2026-04-26 10:18 -30.55929 152.84821 25916 ft 305 kts 221°
2026-04-26 10:19 -30.57441 152.83098 26040 ft 305 kts 221°
2026-04-26 10:19 -30.58934 152.81394 26486 ft 291 kts 221°
2026-04-26 10:19 -30.60320 152.79814 27323 ft 271 kts 221°
2026-04-26 10:19 -30.61669 152.78280 27665 ft 272 kts 221°
2026-04-26 10:20 -30.63021 152.76736 27991 ft 273 kts 221°
2026-04-26 10:20 -30.63920 152.75707 28208 ft 274 kts 221°
2026-04-26 10:20 -30.65775 152.73583 28286 ft 286 kts 221°
2026-04-26 10:20 -30.67216 152.71934 28290 ft 295 kts 221°
2026-04-26 10:21 -30.70204 152.68509 28300 ft 308 kts 221°
2026-04-26 10:21 -30.73276 152.64987 28301 ft 315 kts 221°
2026-04-26 10:22 -30.76412 152.61388 28299 ft 319 kts 222°
2026-04-26 10:22 -30.79568 152.57767 28295 ft 319 kts 221°
2026-04-26 10:23 -30.82733 152.54151 28294 ft 318 kts 221°
2026-04-26 10:23 -30.85904 152.50536 28284 ft 319 kts 221°
2026-04-26 10:24 -30.89069 152.46918 28288 ft 319 kts 221°
2026-04-26 10:24 -30.92228 152.43308 28289 ft 319 kts 221°
2026-04-26 10:25 -30.95402 152.39674 28290 ft 319 kts 221°
2026-04-26 10:25 -30.98543 152.36075 28289 ft 318 kts 221°
2026-04-26 10:26 -31.01701 152.32455 28292 ft 319 kts 221°
2026-04-26 10:26 -31.04864 152.28822 28294 ft 319 kts 221°
2026-04-26 10:27 -31.08028 152.25188 28294 ft 319 kts 221°
2026-04-26 10:27 -31.11185 152.21555 28293 ft 319 kts 221°
2026-04-26 10:28 -31.14346 152.17916 28296 ft 319 kts 221°
2026-04-26 10:28 -31.17501 152.14280 28296 ft 319 kts 221°
2026-04-26 10:29 -31.20635 152.10664 28296 ft 319 kts 222°
2026-04-26 10:29 -31.23789 152.07023 28297 ft 319 kts 222°
2026-04-26 10:30 -31.26943 152.03376 28298 ft 319 kts 222°
2026-04-26 10:30 -31.30098 151.99725 28299 ft 319 kts 222°
2026-04-26 10:31 -31.33244 151.96082 28300 ft 319 kts 222°
2026-04-26 10:31 -31.36399 151.92422 28301 ft 319 kts 222°
2026-04-26 10:32 -31.39547 151.88770 28297 ft 319 kts 222°
2026-04-26 10:32 -31.42825 151.85300 28300 ft 316 kts 213°
2026-04-26 10:33 -31.46369 151.82241 28299 ft 317 kts 214°
2026-04-26 10:33 -31.49903 151.79169 28317 ft 316 kts 214°
2026-04-26 10:34 -31.53442 151.76100 28298 ft 317 kts 214°
2026-04-26 10:34 -31.56978 151.73025 28299 ft 316 kts 214°
2026-04-26 10:35 -31.60494 151.69968 28292 ft 317 kts 214°
2026-04-26 10:35 -31.64030 151.66888 28295 ft 317 kts 214°
2026-04-26 10:36 -31.67567 151.63807 28292 ft 316 kts 214°
2026-04-26 10:36 -31.70273 151.61447 28295 ft 317 kts 214°
2026-04-26 10:37 -31.73810 151.58359 28293 ft 317 kts 214°
2026-04-26 10:37 -31.77351 151.55264 28296 ft 317 kts 214°
2026-04-26 10:38 -31.80891 151.52168 28290 ft 317 kts 214°
2026-04-26 10:38 -31.84407 151.49089 28288 ft 317 kts 214°